Weather reports worldwide

Advertisment
Calvi, France (7754): temperature & dewpoint: 10.09.2019 05:00:00 - 16.09.2019 05:00:00 (CEST)Calvi, France (7754): temperature 5cm: 10.09.2019 05:00:00 - 16.09.2019 05:00:00 (CEST)Calvi, France (7754): wind speed & gusts: 10.09.2019 05:00:00 - 16.09.2019 05:00:00 (CEST)Calvi, France (7754): wind direction: 10.09.2019 05:00:00 - 16.09.2019 05:00:00 (CEST)Calvi, France (7754): reduced air pressure: 10.09.2019 05:00:00 - 16.09.2019 05:00:00 (CEST)Calvi, France (7754): visibility: 10.09.2019 05:00:00 - 16.09.2019 05:00:00 (CEST)Calvi, France (7754): precipitation: 10.09.2019 05:00:00 - 16.09.2019 05:00:00 (CEST)
Date & Time tt [°C] td [°C] tt 5cm [°C] ff [km/h] ff [kn] fx [km/h] fx [kn] dd ppp [hPa] vv [km] rr [mm]
16.09.2019 05:00:00 19,1 15,0 18,1 5 3 11 6 SSE 1019,7 43 0,0
16.09.2019 04:00:00 18,6 14,7 17,5 4 2 11 6 S 1020,1 42 0,0
16.09.2019 03:00:00 18,1 14,8 17,5 5 3 11 6 SSW 1020,6 37 0,0
16.09.2019 02:00:00 18,6 15,1 17,9 5 3 10 5 SW 1020,8 41 0,0
16.09.2019 01:00:00 19,6 15,3 19,0 5 3 13 7 S 1020,7 36 0,0
16.09.2019 00:00:00 19,9 15,7 19,0 7 4 10 5 S 1020,8 40 0,0
15.09.2019 23:00:00 20,6 16,2 19,7 10 5 12 6 SSW 1020,9 41 0,0
15.09.2019 22:00:00 21,1 15,9 20,7 6 4 13 7 S 1021,2 46 0,0
15.09.2019 21:00:00 21,3 16,0 21,1 11 6 13 7 S 1021,4 37 0,0
15.09.2019 20:00:00 23,3 17,1 22,5 0 0 6 4 N 1021,4 36 0,0
15.09.2019 19:00:00 24,8 17,5 25,2 5 3 16 9 NNW 1021,5 59 0,0
15.09.2019 18:00:00 25,4 18,1 27,4 11 6 21 12 NNE 1022,1 55 0,0
15.09.2019 17:00:00 25,7 19,1 29,0 15 8 24 13 N 1022,3 44 0,0
15.09.2019 16:00:00 26,5 18,9 30,8 19 10 28 15 N 1022,5 20 0,0
15.09.2019 15:00:00 26,9 18,2 32,3 20 11 31 17 N 1022,7 60 0,0
15.09.2019 14:00:00 27,6 19,4 31,4 21 12 31 17 N 1022,9 60 0,0
15.09.2019 13:00:00 28,0 16,6 30,6 16 9 23 12 N 1023,2 45 0,0
15.09.2019 12:00:00 26,9 18,2 30,4 12 7 19 10 N 1023,5 60 0,0
15.09.2019 11:00:00 26,4 17,7 27,0 12 6 20 11 N 1024,0 60 0,0
15.09.2019 10:00:00 26,0 16,3 26,0 6 3 13 7 NNE 1023,8 52 0,0
15.09.2019 09:00:00 23,4 13,6 19,1 3 2 14 7 SE 1024,1 54 0,0
15.09.2019 08:00:00 18,2 12,4 15,1 6 3 16 9 S 1023,7 55 0,0
15.09.2019 07:00:00 15,4 11,6 14,7 8 5 11 6 SSW 1023,8 40 0,0
15.09.2019 06:00:00 16,8 11,7 15,8 4 2 13 7 SSE 1023,0 52 0,0
15.09.2019 05:00:00 16,9 11,8 15,7 5 3 10 5 SSW 1023,2 50 0,0
15.09.2019 04:00:00 17,2 12,3 16,5 9 5 13 7 S 1023,4 52 0,0
15.09.2019 03:00:00 17,7 13,2 16,7 6 4 11 6 SSW 1023,5 44 0,0
15.09.2019 02:00:00 18,8 13,4 17,5 8 4 15 8 SSW 1023,9 58 0,0
15.09.2019 01:00:00 17,9 13,4 17,3 8 5 16 9 SSW 1023,9 52 0,0
15.09.2019 00:00:00 18,2 13,1 17,5 13 7 16 9 S 1024,1 49 0,0
14.09.2019 23:00:00 19,3 14,3 18,2 9 5 16 9 SSW 1024,3 45 0,0
14.09.2019 22:00:00 19,6 13,8 19,1 13 7 16 8 S 1024,4 32 0,0
14.09.2019 21:00:00 21,0 15,3 20,3 6 3 9 5 S 1024,2 18 0,0
14.09.2019 20:00:00 23,4 17,2 22,9 9 5 16 9 ENE 1023,6 46 0,0
14.09.2019 19:00:00 25,6 16,7 25,7 11 6 22 12 NW 1023,0 53 0,0
14.09.2019 18:00:00 28,7 15,2 29,7 9 5 22 12 NW 1022,2 54 0,0
14.09.2019 17:00:00 27,6 15,6 29,0 12 6 36 19 NW 1023,0 56 0,0
14.09.2019 16:00:00 29,9 13,2 32,7 13 7 34 18 NW 1023,4 60 0,0
14.09.2019 15:00:00 28,3 15,9 32,1 18 10 40 22 NW 1023,6 39 0,0
14.09.2019 14:00:00 31,9 10,0 33,9 29 16 39 21 N 1023,7 20 0,0
14.09.2019 13:00:00 31,6 11,4 32,1 14 8 29 15 NNW 1024,4 60 0,0
14.09.2019 12:00:00 27,7 15,4 31,1 17 9 28 15 NW 1024,9 60 0,0
14.09.2019 11:00:00 27,4 14,1 27,9 13 7 21 11 N 1025,4 47 0,0
14.09.2019 10:00:00 26,9 15,9 26,2 5 3 9 5 N 1025,8 45 0,0
14.09.2019 09:00:00 24,3 13,8 21,2 0 0 6 3 N 1026,0 38 0,0
14.09.2019 08:00:00 20,7 12,1 17,7 4 2 17 9 SSW 1026,1 42 0,0
14.09.2019 07:00:00 18,3 11,6 16,3 11 6 17 9 SSW 1025,6 47 0,0
14.09.2019 06:00:00 19,0 12,7 17,4 10 5 15 8 SSW 1025,4 31 0,0
14.09.2019 05:00:00 17,6 13,1 16,6 9 5 18 10 S 1025,1 32 0,0
14.09.2019 04:00:00 17,4 12,9 16,7 12 7 14 8 S 1024,9 28 0,0
14.09.2019 03:00:00 17,5 13,2 16,5 7 4 16 8 SSE 1025,4 25 0,0
14.09.2019 02:00:00 17,2 13,3 16,7 3 2 13 7 SSW 1025,6 20 0,0
14.09.2019 01:00:00 17,3 14,0 16,6 6 3 13 7 S 1025,9 20 0,0
14.09.2019 00:00:00 17,3 13,8 16,9 5 3 12 7 S 1025,9 23 0,0
13.09.2019 23:00:00 18,6 14,7 17,6 4 2 13 7 S 1026,1 26 0,0
13.09.2019 22:00:00 19,4 15,3 19,1 9 5 12 6 S 1026,0 27 0,0
13.09.2019 21:00:00 21,4 17,0 20,0 5 3 11 6 SSE 1026,2 29 0,0
13.09.2019 20:00:00 23,5 17,9 23,2 7 4 22 12 NW 1025,8 36 0,0
13.09.2019 19:00:00 24,8 17,0 25,0 11 6 30 16 NW 1025,5 34 0,0
13.09.2019 18:00:00 26,3 18,4 29,0 11 6 30 16 WNW 1025,3 37 0,0
13.09.2019 17:00:00 27,9 15,9 31,5 17 9 32 18 WNW 1025,3 40 0,0
13.09.2019 16:00:00 30,8 12,2 34,9 19 10 34 18 N 1025,2 60 0,0
13.09.2019 15:00:00 29,8 13,5 34,5 22 12 37 20 NW 1025,4 20 0,0
13.09.2019 14:00:00 31,2 11,1 33,8 24 13 45 25 N 1025,9 38 0,0
13.09.2019 13:00:00 31,0 11,4 34,0 32 17 50 27 N 1025,6 20 0,0
13.09.2019 12:00:00 30,8 10,2 32,4 32 18 43 23 N 1025,9 44 0,0
13.09.2019 11:00:00 29,9 9,4 29,3 26 14 37 20 N 1026,0 20 0,0
13.09.2019 10:00:00 28,3 8,0 26,3 15 8 33 18 NNE 1026,4 54 0,0
13.09.2019 09:00:00 24,2 12,5 19,4 8 4 18 10 SSW 1026,8 53 0,0
13.09.2019 08:00:00 18,5 12,3 15,3 8 4 15 8 S 1027,1 52 0,0
13.09.2019 07:00:00 16,4 11,5 15,5 7 4 13 7 S 1027,3 59 0,0
13.09.2019 06:00:00 17,3 11,6 15,3 7 4 13 7 S 1027,3 57 0,0
13.09.2019 05:00:00 17,0 11,3 15,6 4 2 17 9 S 1027,2 54 0,0
13.09.2019 04:00:00 16,9 11,4 16,0 9 5 12 6 S 1027,5 51 0,0
13.09.2019 03:00:00 17,3 11,1 16,1 5 3 15 8 S 1027,5 57 0,0
13.09.2019 02:00:00 17,0 11,3 16,0 8 4 14 7 S 1027,4 59 0,0
13.09.2019 01:00:00 16,8 11,3 15,6 7 4 12 6 SSW 1027,1 53 0,0
13.09.2019 00:00:00 17,2 11,9 16,2 6 3 8 5 SSW 1026,4 45 0,0
12.09.2019 23:00:00 18,4 12,6 17,2 6 4 14 8 S 1026,2 53 0,0
12.09.2019 22:00:00 18,9 12,4 18,2 4 2 14 7 S 1025,9 50 0,0
12.09.2019 21:00:00 20,2 13,2 19,2 7 4 14 8 S 1026,1 18 0,0
12.09.2019 20:00:00 24,4 13,0 22,9 5 3 25 14 NW 1025,8 54 0,0
12.09.2019 19:00:00 26,6 13,3 26,5 13 7 30 16 N 1025,6 60 0,0
12.09.2019 18:00:00 28,9 11,5 31,3 18 10 31 17 N 1025,5 55 0,0
12.09.2019 17:00:00 29,4 13,2 31,4 23 12 32 17 N 1025,5 53 0,0
12.09.2019 16:00:00 26,9 18,2 31,8 16 8 27 15 NNW 1026,3 20 0,0
12.09.2019 15:00:00 27,6 13,9 31,5 13 7 24 13 N 1026,5 60 0,0
12.09.2019 14:00:00 26,1 16,9 29,8 16 9 27 14 NNW 1026,9 60 0,0
12.09.2019 13:00:00 25,7 16,8 29,5 14 8 25 14 NNW 1027,1 60 0,0
12.09.2019 12:00:00 25,7 15,7 29,3 15 8 27 15 N 1027,3 60 0,0
12.09.2019 11:00:00 25,7 12,5 27,0 15 8 21 11 N 1027,0 60 0,0
12.09.2019 10:00:00 25,9 9,7 25,6 10 5 15 8 N 1026,2 58 0,0
12.09.2019 09:00:00 22,5 10,9 17,9 3 2 10 5 S 1025,4 55 0,0
12.09.2019 08:00:00 16,7 10,3 13,7 5 3 13 7 S 1024,9 58 0,0
12.09.2019 07:00:00 14,7 9,7 13,3 5 3 11 6 S 1024,3 44 0,0
12.09.2019 06:00:00 14,9 11,1 14,1 9 5 14 7 SSW 1023,8 60 0,0
12.09.2019 05:00:00 15,9 11,7 14,0 14 8 18 10 S 1023,4 53 0,0
12.09.2019 04:00:00 15,3 12,6 14,0 6 3 14 8 SSW 1023,5 38 0,0
12.09.2019 03:00:00 16,0 13,3 15,5 11 6 18 10 S 1023,3 40 0,0
12.09.2019 02:00:00 16,5 13,8 15,6 7 4 13 7 S 1023,6 42 0,0
12.09.2019 01:00:00 16,6 13,7 15,9 9 5 14 8 S 1022,9 42 0,0
12.09.2019 00:00:00 17,4 14,1 16,6 6 4 13 7 S 1022,5 42 0,0
11.09.2019 23:00:00 19,2 15,1 17,3 11 6 14 8 S 1022,6 46 0,0
11.09.2019 22:00:00 19,4 14,9 18,5 4 2 12 6 SW 1022,3 43 0,0
11.09.2019 21:00:00 21,1 15,9 20,6 8 4 14 7 SSW 1021,9 53 0,0
11.09.2019 20:00:00 22,5 16,8 22,1 9 5 16 9 S 1021,0 49 0,0
11.09.2019 19:00:00 23,9 17,2 24,2 7 4 14 8 W 1020,3 50 0,0
11.09.2019 18:00:00 25,9 16,4 28,4 7 4 28 15 NW 1020,0 52 0,0
11.09.2019 17:00:00 25,5 16,6 29,3 19 10 38 20 NNW 1019,7 59 0,0
11.09.2019 16:00:00 25,4 16,8 29,6 20 11 39 21 NW 1019,5 55 0,0
11.09.2019 15:00:00 26,6 17,9 30,7 18 10 35 19 NNW 1019,1 51 0,0
11.09.2019 14:00:00 26,8 17,6 31,4 17 9 33 18 NW 1018,8 51 0,0
11.09.2019 13:00:00 28,5 15,8 32,6 11 6 29 16 N 1018,2 53 0,0
11.09.2019 12:00:00 27,8 16,4 31,6 12 7 29 15 NNW 1017,9 49 0,0
11.09.2019 11:00:00 27,8 13,0 26,5 4 2 11 6 SSW 1017,3 20 0,0
11.09.2019 10:00:00 25,3 13,2 25,0 7 4 15 8 NNW 1017,1 59 0,0
11.09.2019 09:00:00 22,5 14,3 19,1 4 2 11 6 S 1016,7 55 0,0
11.09.2019 08:00:00 18,1 13,4 15,6 8 4 16 8 S 1016,3 54 0,0
11.09.2019 07:00:00 16,5 13,2 15,1 9 5 14 8 SSW 1015,9 42 0,0
11.09.2019 06:00:00 16,6 12,7 15,1 0 0 13 7 N 1015,6 52 0,0
11.09.2019 05:00:00 17,1 13,2 16,1 6 3 18 10 SSW 1015,2 55 0,0
11.09.2019 04:00:00 16,9 13,4 16,2 6 3 15 8 S 1015,0 53 0,0
11.09.2019 03:00:00 17,2 13,5 16,4 8 5 16 9 SSE 1014,9 55 0,0
11.09.2019 02:00:00 17,4 14,1 16,4 9 5 16 9 SSW 1014,6 52 0,0
11.09.2019 01:00:00 17,5 14,2 16,9 13 7 19 10 SW 1013,8 53 0,0
11.09.2019 00:00:00 17,8 14,5 17,2 8 4 16 9 S 1013,5 50 0,0
10.09.2019 23:00:00 18,0 14,7 17,2 6 3 14 7 SW 1013,4 45 0,0
10.09.2019 22:00:00 19,2 15,1 18,5 11 6 17 9 S 1013,1 53 0,0
10.09.2019 21:00:00 20,0 15,0 19,4 6 3 15 8 S 1012,4 58 0,0
10.09.2019 20:00:00 21,4 16,1 20,5 7 4 13 7 SW 1011,5 60 0,0
10.09.2019 19:00:00 23,4 16,7 23,6 6 3 14 7 WSW 1011,4 60 0,0
10.09.2019 18:00:00 23,9 15,4 24,6 12 7 16 9 SSE 1011,2 60 0,0
10.09.2019 17:00:00 25,1 14,2 21,6 4 2 9 5 WNW 1011,2 59 0,0
10.09.2019 16:00:00 25,0 15,0 21,8 9 5 20 11 N 1011,4 16 0,2
10.09.2019 15:00:00 25,5 16,4 28,6 10 5 16 8 N 1011,3 46 0,0
10.09.2019 14:00:00 24,6 17,1 25,9 10 5 24 13 N 1011,9 20 0,0
10.09.2019 13:00:00 22,8 17,0 25,4 12 7 22 12 NNW 1012,2 48 0,0
10.09.2019 12:00:00 22,5 17,6 24,6 14 7 26 14 NNW 1012,8 41 0,0
10.09.2019 11:00:00 22,2 15,1 21,3 2 1 8 5 N 1012,8 60 0,0
10.09.2019 10:00:00 20,3 16,3 16,9 7 4 31 17 NNE 1012,8 57 0,0
10.09.2019 09:00:00 18,8 14,7 16,7 13 7 23 12 SW 1012,8 7 0,6
10.09.2019 08:00:00 19,7 12,5 18,7 13 7 21 12 SSE 1012,8 60 0,0
10.09.2019 07:00:00 18,6 11,9 17,7 10 5 17 9 WSW 1012,4 60 0,0
10.09.2019 06:00:00 18,0 11,5 17,4 12 7 14 7 SSE 1012,8 60 0,0
10.09.2019 05:00:00 17,9 11,2 17,5 7 4 14 8 SSW 1013,4 60 0,0

tt = temperature
td = dewpoint
tt 5cm = temperature 5cm
ff = wind speed
fx = gusts
dd = wind direction
ppp = reduced air pressure
vv = visibility
rr = precipitation

Next stations